[[{"header":{"parameterUnit":"m.s-1","parameterCategory":1,"la1":30.2992,"la2":30.254,"lo1":-89.0895,"lo2":-89.0443,"dy":0.0025,"dx":0.0025,"nx":19,"ny":19,"refTime":"2026-04-30T21:00:00:Z","depth":0,"parameterNumber":2,"parameterNumberName":"U-component_of_WINDS"},"data":[0,0,0,-2.0228,-2.0227,-2.0138,-2.0138,-2.0054,-2.0054,0,0,0,0,0,0,0,0,0,0,0,-2.0275,-2.0275,-2.0229,-2.0227,-2.0139,-2.0138,-2.0054,-2.0054,0,0,0,0,0,0,0,0,0,0,0,-2.0275,-2.0275,-2.0275,-2.0227,-2.0139,-2.0138,-2.0054,-2.011,0,0,0,0,0,0,0,0,0,0,-2.0191,-2.0254,-2.0275,-2.0275,-2.0226,-2.0139,-2.0138,-2.0112,-2.0107,-2.0108,0,-2.0116,0,-2.0084,-2.005,-2.005,0,0,0,-2.0211,-2.0259,-2.0217,-2.0275,-2.0226,-2.0139,-2.0174,-2.0109,-2.0102,-2.01,-2.0114,-2.011,-2.0083,-2.005,-2.005,-2.0113,-2.0114,0,0,-2.0216,-2.0269,-2.0222,-2.0214,-2.0232,-2.0177,-2.0171,-2.0104,-2.0122,-2.0114,-2.0108,-2.0081,-2.0049,-2.0049,-2.0112,-2.0114,0,0,0,-2.0241,-2.0274,-2.0232,-2.0218,-2.02,-2.0175,-2.0168,-2.0125,-2.0108,-2.0107,-2.008,-2.0049,-2.0049,-2.0111,-2.0113,-2.0218,0,0,0,-2.0243,-2.0288,-2.0235,-2.0267,-2.0202,-2.0162,-2.0192,-2.0112,-2.0103,-2.0081,-2.0049,-2.0048,-2.011,-2.0112,-2.0212,-2.0258,0,0,0,-2.0274,-2.0291,-2.0286,-2.027,-2.0234,-2.0162,-2.014,-2.0109,-2.0088,-2.005,-2.0048,-2.0109,-2.0112,-2.0207,-2.025,-2.0291,0,0,0,-2.0321,-2.0379,-2.0288,-2.0341,-2.0236,-2.0228,-2.014,-2.0131,-2.0111,-2.0049,-2.011,-2.0113,-2.0206,-2.0245,-2.0287,-2.0337,-2.0362,0,0,-2.0423,-2.0393,-2.042,-2.0336,-2.0359,-2.0237,-2.0274,-2.0204,-2.015,-2.0128,-2.0129,-2.0214,-2.0249,-2.029,-2.0486,-2.0507,0,0,0,-2.047,-2.0491,-2.0485,-2.047,-2.0419,-2.0378,-2.0297,-2.0271,-2.025,-2.0151,-2.0238,-2.0257,-2.0279,-2.03,-2.0318,-2.0333,-2.0125,-2.0124,-2.0124,-2.0692,-2.0621,-2.0661,-2.058,-2.0566,-2.0482,-2.0463,-2.0413,-2.0345,-2.0367,-2.036,-2.0488,-2.0515,-2.0528,-2.0545,-2.038,-2.038,-2.038,-2.0381,-2.0835,-2.0853,-2.0761,-2.0768,-2.0692,-2.0695,-2.0615,-2.0567,-2.0558,-2.0487,-2.0502,-2.0433,-2.0553,-2.0564,-2.0388,-2.0387,-2.0386,-2.0385,-2.0384,-2.0973,-2.097,-2.0938,-2.0908,-2.0893,-2.0807,-2.0803,-2.0733,-2.0667,-2.0682,-2.0667,-2.0665,-2.0655,-2.068,-2.068,-2.0681,-2.0681,-2.0681,-2.0682,-2.113,-2.109,-2.1097,-2.1048,-2.1028,-2.0994,-2.0909,-2.0887,-2.0845,-2.0794,-2.0794,-2.0724,-2.0578,-2.0544,-2.0688,-2.0687,-2.0686,-2.0686,-2.0685,-2.1304,-2.1253,-2.1264,-2.1245,-2.118,-2.1169,-2.108,-2.1041,-2.1013,-2.1013,-2.0938,-2.0842,-2.0805,-2.0791,-2.0762,-2.0954,-2.0954,-2.0954,-2.0954,-2.1421,-2.1396,-2.139,-2.1364,-2.133,-2.1251,-2.1262,-2.1196,-2.112,-2.1097,-2.1058,-2.1014,-2.1002,-2.0972,-2.0953,-2.0925,-2.1154,-2.1154,-2.1154,-2.1524,-2.1492,-2.1517,-2.1443,-2.1388,-2.1341,-2.1349,-2.1321,-2.1223,-2.1161,-2.1078,-2.1069,-2.0996,-2.0976,-2.0914,-2.0887,-2.0834,0,0]},{"header":{"parameterUnit":"m.s-1","parameterCategory":1,"la1":30.2992,"la2":30.254,"lo1":-89.0895,"lo2":-89.0443,"dy":0.0025,"dx":0.0025,"nx":19,"ny":19,"refTime":"2026-04-30T21:00:00:Z","depth":0,"parameterNumber":3,"parameterNumberName":"V-component_of_WINDS"},"data":[0,0,0,-0.9161,-0.916,-0.9144,-0.9144,-0.9103,-0.9102,0,0,0,0,0,0,0,0,0,0,0,-0.9154,-0.9154,-0.9161,-0.916,-0.9144,-0.9144,-0.9103,-0.9102,0,0,0,0,0,0,0,0,0,0,0,-0.9155,-0.9154,-0.9153,-0.916,-0.9144,-0.9144,-0.9103,-0.9122,0,0,0,0,0,0,0,0,0,0,-0.9141,-0.9125,-0.9154,-0.9153,-0.916,-0.9144,-0.9144,-0.9123,-0.9121,-0.9102,0,-0.9083,0,-0.9092,-0.9098,-0.9098,0,0,0,-0.9168,-0.9127,-0.9133,-0.9153,-0.9159,-0.9144,-0.9153,-0.9122,-0.9119,-0.9098,-0.9083,-0.9082,-0.9091,-0.9098,-0.9098,-0.8961,-0.896,0,0,-0.9169,-0.9145,-0.9135,-0.913,-0.9133,-0.9154,-0.9153,-0.9121,-0.9102,-0.9083,-0.9081,-0.9091,-0.9098,-0.9097,-0.8962,-0.8961,0,0,0,-0.9166,-0.9146,-0.9153,-0.9132,-0.913,-0.9153,-0.9152,-0.9103,-0.9107,-0.9081,-0.909,-0.9097,-0.9097,-0.8963,-0.8962,-0.8886,0,0,0,-0.9167,-0.9144,-0.9152,-0.9138,-0.913,-0.9117,-0.9134,-0.911,-0.9107,-0.909,-0.9097,-0.9096,-0.8964,-0.8962,-0.8891,-0.8854,0,0,0,-0.9159,-0.9143,-0.9137,-0.9137,-0.9129,-0.9118,-0.9121,-0.911,-0.9112,-0.9098,-0.9096,-0.8965,-0.8963,-0.8895,-0.8861,-0.8808,0,0,0,-0.9144,-0.9073,-0.9136,-0.906,-0.9129,-0.9073,-0.9121,-0.908,-0.906,-0.9097,-0.8964,-0.8962,-0.8896,-0.8865,-0.8812,-0.8757,-0.8733,0,0,-0.9041,-0.9059,-0.9016,-0.9072,-0.8998,-0.9077,-0.8992,-0.8995,-0.9016,-0.8978,-0.8975,-0.8889,-0.8861,-0.8809,-0.8612,-0.8593,0,0,0,-0.8975,-0.8943,-0.8929,-0.8908,-0.8909,-0.8906,-0.8925,-0.8926,-0.8895,-0.8992,-0.8859,-0.8843,-0.8813,-0.8788,-0.8771,-0.8745,-0.895,-0.895,-0.8951,-0.8794,-0.8823,-0.8752,-0.8779,-0.8758,-0.8778,-0.8762,-0.8767,-0.8804,-0.8772,-0.876,-0.8637,-0.8606,-0.8594,-0.8566,-0.8736,-0.8736,-0.8736,-0.8736,-0.8642,-0.86,-0.8649,-0.8598,-0.8629,-0.8586,-0.8601,-0.8629,-0.8591,-0.8649,-0.8624,-0.8681,-0.8572,-0.8549,-0.873,-0.8731,-0.8732,-0.8732,-0.8733,-0.8523,-0.8507,-0.851,-0.8481,-0.8455,-0.8485,-0.8446,-0.8477,-0.8506,-0.8482,-0.8469,-0.8471,-0.8472,-0.8475,-0.8474,-0.8474,-0.8473,-0.8473,-0.8473,-0.8397,-0.8403,-0.8366,-0.836,-0.8349,-0.8338,-0.8356,-0.8346,-0.8342,-0.8367,-0.8367,-0.8404,-0.8557,-0.8592,-0.8466,-0.8467,-0.8468,-0.8469,-0.8469,-0.8225,-0.8269,-0.8213,-0.8201,-0.8195,-0.8164,-0.8205,-0.818,-0.8177,-0.8156,-0.8199,-0.8308,-0.8329,-0.8342,-0.8371,-0.8196,-0.8196,-0.8196,-0.8196,-0.8122,-0.8136,-0.8084,-0.8063,-0.8047,-0.8077,-0.8009,-0.8022,-0.8041,-0.804,-0.8071,-0.8114,-0.8126,-0.8139,-0.8157,-0.8184,-0.7965,-0.7964,-0.7964,-0.8016,-0.803,-0.7966,-0.7987,-0.7983,-0.7979,-0.7915,-0.7887,-0.792,-0.7955,-0.8038,-0.8048,-0.8118,-0.814,-0.8173,-0.82,-0.8251,0,0]}]]